"Pseudo-MPEC" for P21l7gV

Created 2021 Sep 15 14:07:31 UT using Find_Orb

Click here for an explanation of pseudo-MPECs

 
 Astrometry: 
     P21l7gV  C2021 09 13.29981 00 23 28.52 -10 26 50.6    ~9F6q 21.9 GVNEOCPG96
     P21l7gV  C2021 09 13.30937 00 23 29.28 -10 26 53.7    ~9F6q 21.2 GVNEOCPG96
     P21l7gV  C2021 09 13;g\!T78X/`;8tq4IBFACddA3B_J3n=Dc*d^'=1s7(-;%-\HqC_B]F52
     P21l7gV  C2021 09 13/U+LynVAstrometryYnx5dY,uSxX:9]Hu_su(Xqehpn?K`Rs^A^qF52
     P21l7gV  C2021 09 13N3JLk?eredacted;Ng:3:ipM`5;f`/F%4,WbDxF3@R%_q-euATknF52
     P21l7gV  C2021 09 13nZc5@L5y;BV#@/#6561B;p9#QYxr3i@\#)qD/`wJ\T'#=*m,u$NjF52
     P21l7gV  C2021 09 13OBm!kRh4rJ8Uu6\3iAJu^/iE*GsNv;BVpg._cn59*Tu=wm9GiQ02F51
     P21l7gV  C2021 09 13vn3pC0eef6,OO./8EQ`SXPtqQ=Hb)yVoS4rG$%vS3+lj*w*]Xb3,F51
     P21l7gV |C2021 09 153?I6[,57^E]L=*QBZ*0?PJN^a,GO8Zn;JO!_@#we`J)D!click%X807
     P21l7gV |C2021 09 15+5x6idNcJu8/`WZ5Xs05qOPAXtv8S[M+q=-5kJ_@=!)#2=mj7WZb807
     P21l7gV |C2021 09 15,0]?*YW7n*BfG)!l.a2Kp(hereO3usJRSf9for=IX\59Qs6=usrg807
     P21l7gV  C2021 09 15[3T`PJiY]RbK`(dWRBY41M?*=\Y6/explanationGLBU2rY!+p@8F51
     P21l7gV  C2021 09 152ER;//m+i[ppUT3k4#5OCjbo#=!s79,\kGEnPC)9^UPC*PXYMuC%F51
     P21l7gV  C2021 09 159xxP7^3\+X6yc4]c'Ar.q;8sKOO!rT:p-jakWwQj4*SHgp)/i7Z^F51
     P21l7gV  C2021 09 15)\2/2a0^pJ/WnJHLHS6^I8%?A4bYI!+3KqN[VD+?!Ti$kWv'oE?uF51

Station data:
(807) Cerro Tololo Observatory, La Serena  (S30.169136 W70.805900)  Chile.
(F51) Pan-STARRS 1, Haleakala  (N20.707235 W156.255910)  US/Hawaii.
   Observers N. Primak, A. Schultz, S. Watters, J. Thiel, T. Goggia. Measurer
   PS1 Science Consortium. 1.8-m Ritchey-Chrétien + CCD.
(F52) Pan-STARRS 2, Haleakala  (N20.707384 W156.255910)  US/Hawaii. 1.8-m
   Ritchey-Chrétien + CCD.
(G96) Mt. Lemmon Survey  (N32.442754 W110.788720)  US/Arizona.  Observers T.
   A. Pruyne, B. M. Africano, E. J. Christensen, G. A. Farneth, D. C. Fuls,
   A. R. Gibbs, A. D. Grauer, H. Gröller, J. A. Johnson, R. A. Kowalski, S.
   M. Larson, G. J. Leonard, D. Rankin, R. L. Seaman, F. C. Shelly. 1.5-m
   reflector + 10K CCD.

Orbital elements:  P21l7gV
   Perihelion 2021 Oct 27.718735 +/- 0.759747 TT = 17:14:58 (JD 2459515.218735)
Epoch 2021 Sep 15.0 TT = JDT 2459472.5   Earth MOID: 0.1937   Ma: 0.0105
M 349.24642416 +/- 0.2171713        (J2000 ecliptic)          AutoNEOCP
n   0.25172973 +/- 0.00576351       Peri.  282.87287 +/- 1.8060969
a   2.48416078 +/- 0.0379402        Node   109.75173 +/- 0.9662306
e   0.5248664 +/- 0.00768341        Incl.    2.94935 +/- 0.0291484
P   3.92                   H 23.8   G  0.15   U  9.3  
q 1.18030818 +/- 0.00432275    Q 3.78801338 +/- 0.0783107
From 15 observations 2021 Sept. 13-15; mean residual 0".16
Residuals in arcseconds: 
210913 G96  .29+  .12-    210913 F52  .03+  .20-    210915 807  .01+  .09+    
210913 G96  .21-  .23-    210913 F51  .14-  .14-    210915 F51  .37-  .13+    
210913 F52  .03-  .19+    210913 F51  .20+  .26+    210915 F51  .02-  .12-    
210913 F52  .12-  .17+    210915 807  .03+  .14-    210915 F51  .15+  .12-    
210913 F52  .08-  .19+    210915 807  .06+  .10+    210915 F51  .13+  .02+    

Ephemerides (geocentric):
Date (UTC) HH   RA              Dec         delta   r     elong  mag " sig PA
---- -- -- --  -------------   -----------  ------ ------ -----  --- ---- ---
2021 09 15 14  00 27 05.276   -10 37 50.27  .27545 1.2731 164.5 22.2 .075 139
2021 09 15 15  00 27 09.300   -10 38 02.35  .27528 1.2730 164.5 22.2 .090 132
2021 09 15 16  00 27 13.328   -10 38 14.41  .27510 1.2728 164.5 22.2 .107 126
2021 09 15 17  00 27 17.357   -10 38 26.46  .27493 1.2726 164.6 22.2 .125 123
2021 09 15 18  00 27 21.388   -10 38 38.50  .27476 1.2725 164.6 22.2 .144 120
2021 09 15 19  00 27 25.422   -10 38 50.52  .27459 1.2723 164.6 22.2 .164 117
2021 09 15 20  00 27 29.458   -10 39 02.53  .27441 1.2721 164.6 22.2 .185 116
2021 09 15 21  00 27 33.496   -10 39 14.52  .27424 1.2719 164.6 22.2 .207 114
2021 09 15 22  00 27 37.537   -10 39 26.50  .27407 1.2718 164.6 22.2 .230 113
2021 09 15 23  00 27 41.579   -10 39 38.47  .27390 1.2716 164.6 22.2 .254 112
2021 09 16 00  00 27 45.624   -10 39 50.42  .27373 1.2714 164.6 22.2 .278 111
2021 09 16 01  00 27 49.672   -10 40 02.35  .27356 1.2712 164.6 22.2 .304 110
2021 09 16 02  00 27 53.721   -10 40 14.27  .27339 1.2711 164.6 22.2 .330 110
2021 09 16 03  00 27 57.773   -10 40 26.18  .27322 1.2709 164.6 22.2 .356 109
2021 09 16 04  00 28 01.827   -10 40 38.07  .27305 1.2707 164.6 22.2 .384 109
2021 09 16 05  00 28 05.883   -10 40 49.94  .27288 1.2706 164.6 22.2 .412 108
2021 09 16 06  00 28 09.942   -10 41 01.80  .27271 1.2704 164.6 22.2 .441 108
2021 09 16 07  00 28 14.003   -10 41 13.64  .27254 1.2702 164.7 22.2 .471 108
2021 09 16 08  00 28 18.066   -10 41 25.47  .27237 1.2701 164.7 22.2 .502 107
2021 09 16 09  00 28 22.131   -10 41 37.28  .27220 1.2699 164.7 22.2 .533 107
2021 09 16 10  00 28 26.199   -10 41 49.08  .27203 1.2697 164.7 22.2 .565 107
2021 09 16 11  00 28 30.269   -10 42 00.86  .27186 1.2695 164.7 22.2 .598 107
2021 09 16 12  00 28 34.341   -10 42 12.63  .27169 1.2694 164.7 22.2 .632 107
2021 09 16 13  00 28 38.416   -10 42 24.38  .27152 1.2692 164.7 22.2 .667 106
2021 09 16 14  00 28 42.493   -10 42 36.11  .27135 1.2690 164.7 22.2 .702 106
2021 09 16 15  00 28 46.572   -10 42 47.82  .27119 1.2689 164.7 22.2 .738 106
2021 09 16 16  00 28 50.653   -10 42 59.52  .27102 1.2687 164.7 22.2 .775 106
2021 09 16 17  00 28 54.737   -10 43 11.21  .27085 1.2685 164.7 22.2 .812 106
2021 09 16 18  00 28 58.823   -10 43 22.87  .27068 1.2684 164.7 22.2 .851 106
2021 09 16 19  00 29 02.912   -10 43 34.53  .27052 1.2682 164.7 22.2 .890 106
2021 09 16 20  00 29 07.002   -10 43 46.16  .27035 1.2680 164.7 22.2 .930 106
2021 09 16 21  00 29 11.095   -10 43 57.78  .27018 1.2679 164.7 22.2 .971 106
2021 09 16 22  00 29 15.191   -10 44 09.38  .27001 1.2677 164.8 22.2 1.01 106
2021 09 16 23  00 29 19.288   -10 44 20.96  .26985 1.2675 164.8 22.2 1.05 106
2021 09 17 00  00 29 23.389   -10 44 32.52  .26968 1.2673 164.8 22.2 1.10 105
2021 09 17 01  00 29 27.491   -10 44 44.07  .26952 1.2672 164.8 22.2 1.14 105
2021 09 17 02  00 29 31.596   -10 44 55.60  .26935 1.2670 164.8 22.2 1.19 105
2021 09 17 03  00 29 35.703   -10 45 07.12  .26918 1.2668 164.8 22.2 1.23 105
2021 09 17 04  00 29 39.812   -10 45 18.61  .26902 1.2667 164.8 22.2 1.28 105
2021 09 17 05  00 29 43.924   -10 45 30.09  .26885 1.2665 164.8 22.2 1.32 105
2021 09 17 06  00 29 48.038   -10 45 41.55  .26869 1.2663 164.8 22.2 1.37 105
2021 09 17 07  00 29 52.154   -10 45 52.99  .26852 1.2662 164.8 22.2 1.42 105
2021 09 17 08  00 29 56.273   -10 46 04.42  .26836 1.2660 164.8 22.2 1.47 105
2021 09 17 09  00 30 00.394   -10 46 15.82  .26819 1.2658 164.8 22.2 1.52 105
2021 09 17 10  00 30 04.518   -10 46 27.21  .26803 1.2657 164.8 22.2 1.57 105
2021 09 17 11  00 30 08.643   -10 46 38.58  .26787 1.2655 164.8 22.2 1.62 105
2021 09 17 12  00 30 12.772   -10 46 49.93  .26770 1.2653 164.8 22.2 1.68 105
2021 09 17 13  00 30 16.902   -10 47 01.26  .26754 1.2652 164.8 22.2 1.73 105